Weather History for Paynesville, MN

Change the Weather History Date:

Monday, August 19, 2013

  Actual Average (KLJF) Record (KLJF)
Temperature  
Mean Temperature 76 °F -  
Max Temperature 86 °F 79 °F 97 °F (1976)
Min Temperature 65 °F 58 °F 42 °F (2004)
Cooling Degree Days 10    
Growing Degree Days 26 (Base 50)    
Moisture  
Dew Point 64 °F    
Average Humidity 68    
Maximum Humidity 82    
Minimum Humidity 49    
Precipitation  
Precipitation 0.00 in - - ()
Sea Level Pressure  
Sea Level Pressure 29.94 in    
Wind  
Wind Speed 5 mph (South)    
Max Wind Speed 12 mph    
Max Gust Speed 16 mph    
Visibility 9 miles    
Events      
Averages and records for this station are not official NWS values.
T = Trace of Precipitation, MM = Missing Value Source: NWS Daily Summary

Daily Weather History Graph

Daily Weather History Graph

Search for Another Location

Airport:

Trip Planner

Search our weather history database for the weather conditions in past years. The results will help you decide how hot, cold, wet, or windy it might be!

Date:

Astronomy

Aug. 19, 2013 Rise Set
Actual Time 6:25 AM CDT 8:19 PM CDT
Civil Twilight 5:53 AM CDT 8:50 PM CDT
Nautical Twilight 5:14 AM CDT 9:29 PM CDT
Astronomical Twilight 4:31 AM CDT 10:11 PM CDT
Moon 7:10 PM CDT (8/19) 4:43 AM CDT (8/19)
Length of Visible Light 14h 57m
Length of Day
13h 54m
Waxing Gibbous, 97% of the Moon is Illuminated
Aug 19
Waxing Gibbous
Aug 20
Full
Aug 28
Last Quarter
Sep 5
New
Sep 12
First Quarter

Hourly Weather History & Observations

Time (CDT) Temp. Heat Index Dew Point Humidity Pressure Visibility Wind Dir Wind Speed Gust Speed Precip Events Conditions
12:13 AM 69.4 °F - 58.1 °F 67% 30.02 in 10.0 mi Calm Calm - N/A   Overcast
12:33 AM 69.1 °F - 58.3 °F 68% 30.03 in 10.0 mi Calm Calm - N/A   Overcast
12:52 AM 69.1 °F - 58.3 °F 68% 30.03 in 10.0 mi Calm Calm - N/A   Overcast
1:13 AM 69.1 °F - 58.3 °F 68% 30.01 in 10.0 mi South 6.9 mph - N/A   Scattered Clouds
1:33 AM 69.4 °F - 58.1 °F 67% 30.00 in 10.0 mi South 10.4 mph - N/A   Clear
1:52 AM 69.3 °F - 58.1 °F 68% 30.00 in 10.0 mi SSW 11.5 mph 16.1 mph N/A   Clear
2:13 AM 69.1 °F - 58.1 °F 68% 30.00 in 10.0 mi SSW 8.1 mph - N/A   Scattered Clouds
2:33 AM 68.9 °F - 58.1 °F 68% 29.99 in 10.0 mi SSW 6.9 mph - N/A   Mostly Cloudy
2:53 AM 68.4 °F - 58.5 °F 71% 29.99 in 10.0 mi SSW 4.6 mph - N/A   Mostly Cloudy
3:13 AM 68.2 °F - 58.5 °F 71% 29.99 in 10.0 mi SSW 6.9 mph - N/A   Scattered Clouds
3:33 AM 68.0 °F - 58.5 °F 71% 29.99 in 10.0 mi SSW 6.9 mph - N/A   Clear
3:53 AM 67.6 °F - 58.6 °F 73% 29.98 in 10.0 mi SSW 5.8 mph - N/A   Clear
4:13 AM 67.3 °F - 58.6 °F 74% 29.97 in 10.0 mi South 3.5 mph - N/A   Clear
4:32 AM 67.1 °F - 58.5 °F 74% 29.96 in 10.0 mi South 3.5 mph - N/A   Clear
4:53 AM 67.1 °F - 59.0 °F 75% 29.96 in 10.0 mi South 3.5 mph - N/A   Clear
5:13 AM 66.4 °F - 59.2 °F 78% 29.96 in 10.0 mi South 3.5 mph - N/A   Clear
5:32 AM 66.2 °F - 59.2 °F 78% 29.96 in 10.0 mi South 4.6 mph - N/A   Clear
5:53 AM 65.8 °F - 59.2 °F 79% 29.96 in 10.0 mi South 3.5 mph - N/A   Clear
6:13 AM 65.8 °F - 59.4 °F 80% 29.96 in 10.0 mi Calm Calm - N/A   Scattered Clouds
6:32 AM 65.8 °F - 59.5 °F 80% 29.96 in 10.0 mi South 5.8 mph - N/A   Mostly Cloudy
6:53 AM 65.7 °F - 59.5 °F 81% 29.96 in 10.0 mi South 3.5 mph - N/A   Mostly Cloudy
7:13 AM 65.8 °F - 59.5 °F 80% 29.96 in 10.0 mi South 5.8 mph - N/A   Mostly Cloudy
7:32 AM 66.2 °F - 59.9 °F 80% 29.96 in 10.0 mi South 3.5 mph - N/A   Scattered Clouds
7:53 AM 66.4 °F - 60.1 °F 80% 29.96 in 10.0 mi South 4.6 mph - N/A   Clear
8:13 AM 66.4 °F - 60.3 °F 81% 29.96 in 10.0 mi Calm Calm - N/A   Clear
8:32 AM 67.1 °F - 60.8 °F 80% 29.96 in 10.0 mi Calm Calm - N/A   Clear
8:53 AM 68.5 °F - 61.5 °F 78% 29.96 in 10.0 mi South 6.9 mph - N/A   Clear
9:13 AM 68.9 °F - 61.7 °F 78% 29.96 in 10.0 mi SSW 4.6 mph - N/A   Clear
9:32 AM 69.8 °F - 61.9 °F 76% 29.95 in 10.0 mi SSW 6.9 mph - N/A   Clear
9:53 AM 70.2 °F - 62.1 °F 75% 29.95 in 10.0 mi SSW 3.5 mph - N/A   Clear
10:13 AM 72.3 °F - 62.8 °F 72% 29.96 in 10.0 mi SW 3.5 mph - N/A   Clear
10:33 AM 75.0 °F - 63.0 °F 66% 29.96 in 10.0 mi South 6.9 mph - N/A   Clear
10:53 AM 75.9 °F - 63.5 °F 65% 29.96 in 10.0 mi SSW 5.8 mph - N/A   Clear
11:13 AM 77.4 °F - 63.9 °F 63% 29.96 in 10.0 mi SSW 6.9 mph - N/A   Clear
11:33 AM 78.1 °F - 64.4 °F 63% 29.96 in 10.0 mi SSW 5.8 mph - N/A   Clear
11:52 AM 79.3 °F - 64.4 °F 60% 29.95 in 10.0 mi South 5.8 mph - N/A   Clear
12:13 PM 80.4 °F 82.1 °F 64.4 °F 58% 29.95 in 10.0 mi South 6.9 mph - N/A   Clear
12:33 PM 81.7 °F 83.5 °F 65.3 °F 57% 29.95 in 10.0 mi SSW 6.9 mph - N/A   Clear
12:53 PM 81.9 °F 83.7 °F 65.5 °F 57% 29.94 in 10.0 mi SSW 5.8 mph - N/A   Clear
1:13 PM 82.6 °F 84.5 °F 65.5 °F 56% 29.94 in 10.0 mi South 5.8 mph - N/A   Clear
1:32 PM 82.8 °F 84.9 °F 66.0 °F 57% 29.93 in 7.0 mi South 5.8 mph - N/A   Clear
1:53 PM 84.2 °F 86.3 °F 65.7 °F 54% 29.93 in 7.0 mi South 6.9 mph - N/A   Clear
2:13 PM 84.7 °F 87.1 °F 66.2 °F 54% 29.93 in 5.0 mi SSE 8.1 mph - N/A   Haze
2:33 PM 85.6 °F 87.6 °F 65.8 °F 51% 29.93 in 7.0 mi SSE 6.9 mph - N/A   Clear
2:53 PM 86.4 °F 88.1 °F 65.1 °F 49% 29.92 in 7.0 mi South 8.1 mph - N/A   Clear
3:12 PM 86.0 °F 88.2 °F 66.2 °F 51% 29.92 in 7.0 mi South 6.9 mph - N/A   Scattered Clouds
3:33 PM 86.0 °F 87.9 °F 65.5 °F 50% 29.92 in 7.0 mi South 10.4 mph 16.1 mph N/A   Scattered Clouds
3:53 PM 85.3 °F 87.4 °F 66.0 °F 52% 29.91 in 7.0 mi South 6.9 mph - N/A   Scattered Clouds
4:12 PM 86.7 °F 89.0 °F 66.0 °F 50% 29.91 in 7.0 mi South 9.2 mph - N/A   Scattered Clouds
4:33 PM 86.2 °F 88.4 °F 65.8 °F 51% 29.90 in 7.0 mi South 9.2 mph - N/A   Clear
4:53 PM 85.5 °F 88.2 °F 66.9 °F 54% 29.90 in 5.0 mi SSE 9.2 mph - N/A   Haze
5:12 PM 84.7 °F 87.4 °F 67.1 °F 55% 29.90 in 5.0 mi South 5.8 mph - N/A   Haze
5:33 PM 83.8 °F 86.5 °F 67.3 °F 57% 29.90 in 7.0 mi SSE 8.1 mph - N/A   Mostly Cloudy
5:52 PM 83.8 °F 86.7 °F 67.5 °F 58% 29.90 in 7.0 mi SSE 9.2 mph - N/A   Mostly Cloudy
6:12 PM 83.1 °F 86.1 °F 67.8 °F 60% 29.89 in 5.0 mi SSE 6.9 mph - N/A   Haze
6:33 PM 82.4 °F 85.4 °F 68.2 °F 62% 29.89 in 5.0 mi SSE 6.9 mph - N/A   Haze
6:53 PM 81.7 °F 84.7 °F 68.4 °F 64% 29.89 in 5.0 mi SE 5.8 mph - N/A   Haze
7:12 PM 81.5 °F 84.4 °F 68.4 °F 64% 29.89 in 7.0 mi SE 5.8 mph - N/A   Mostly Cloudy
7:33 PM 80.8 °F 83.6 °F 68.4 °F 66% 29.88 in 5.0 mi SE 5.8 mph - N/A   Haze
7:53 PM 80.2 °F 83.1 °F 68.9 °F 68% 29.88 in 5.0 mi SE 6.9 mph - N/A   Haze
8:12 PM 79.7 °F - 68.9 °F 69% 29.89 in 7.0 mi SE 5.8 mph - N/A   Scattered Clouds
8:33 PM 78.8 °F - 69.3 °F 72% 29.89 in 5.0 mi SE 6.9 mph - N/A   Haze
8:53 PM 78.4 °F - 69.3 °F 73% 29.89 in 5.0 mi SSE 5.8 mph - N/A   Haze
9:13 PM 77.9 °F - 69.3 °F 75% 29.90 in 7.0 mi SSE 3.5 mph - N/A   Mostly Cloudy
9:33 PM 77.4 °F - 69.1 °F 76% 29.90 in 10.0 mi SSE 5.8 mph - N/A   Scattered Clouds
9:52 PM 77.0 °F - 69.3 °F 77% 29.90 in 10.0 mi SSE 5.8 mph - N/A   Scattered Clouds
10:13 PM 76.1 °F - 69.3 °F 79% 29.90 in 10.0 mi SSE 5.8 mph - N/A   Clear
10:32 PM 76.3 °F - 69.1 °F 78% 29.90 in 7.0 mi SSE 5.8 mph - N/A   Scattered Clouds
10:53 PM 75.9 °F - 68.9 °F 79% 29.90 in 7.0 mi SSE 4.6 mph - N/A   Scattered Clouds
11:13 PM 75.2 °F - 68.9 °F 81% 29.90 in 7.0 mi SE 5.8 mph - N/A   Scattered Clouds
11:32 PM 74.8 °F - 68.9 °F 82% 29.90 in 7.0 mi SSE 5.8 mph - N/A   Mostly Cloudy
11:53 PM 74.7 °F - 68.7 °F 82% 29.90 in 10.0 mi SSE 4.6 mph - N/A   Mostly Cloudy